Location: Unspecified
(0.0000°N, 0.0000°E)
Time: 16:21:38
(UTC+00:00)

UNISAT 5 - Pass Details

Date: 10 June 2023
Orbit: 573 x 612 km, 97.5° (Epoch: 22 September)

Event Time Altitude Azimuth Distance (km) Brightness Sun altitude
Rises 04:05:50 0° 14° (NNE) 2,773 ? -26.0°
Reaches altitude 10° 04:07:59 10° 16° (NNE) 1,874 ? -25.5°
Enters shadow 04:11:59 75° 93° (E) 594 ? -24.6°
